Find Starlink 38354

NORAD ID: 100549 Int'l Des: 2026-200 Owner: SPXS Country: US Constellation: starlink operational

現在のビュー

3D地球を読み込み中...

About Starlink 38354

Starlink 38354 (NORAD 100549) is a starlink constellation satellite launched Sep 2, 2026 by SPXS of US. with a mass of 575.00 kg.

次回通過

Passes for default location (London). Set your location on the main map for personalized predictions.

高度履歴

Loading altitude history...

軌道要素

1 A0549U 26200R 26263.97864538 .00327845 00000-0 15323-2 0 9992
2 A0549 69.9987 133.8298 0004551 274.8268 85.2414 15.82230138 2968
Epoch: Sep 20, 2026 • Age: 6 hours

現在のステータス

高度 340.3 km
遠地点 / 近地点 N/A
速度 7.70 km/s
衛星直下点 -51.10°S, 26.55°E
打ち上げ日 Sep 2, 2026
運用期間 18 days
タイプ internet

技術仕様

分類 Payload
質量 575.00 kg
乾燥質量 530.00 kg
長さ 0.30 m
スパン 29.00 m
形状 ? Box + pan
製造者 SPXS
バスタイプ Starlink V2MO
フェーズステータス In Orbit
所有者/国 SPXS/US

Most Searched